www.pogodaiklimat.ru

Погода и климат >> Архив погоды >> Россия >> Ростовская область >> Ростов-на-Дону


АРХИВ ПОГОДЫ в Ростове-на-Дону

Время (UTC), дата Ветер
(напр.,м/с)
 
Видим.   Явления Облачность Т
(С)
Тd
(С)
f
(%)
Тe
(С)
Тes
(С)
Комфортность P
(гПа)
Po
(гПа)
Тmin
(С)
Tmax
(С)
R
(мм)
R24
(мм)
S
(см)
18 9.08 СВ 8-11
{13}
8000 м ясно +28.6 +13.6 40 +30 +30 жарко 1016.8 1008.3
21 9.08 СВ 7-10
{13}
8000 м ясно +25.3 +12.7 46 +27 +27 жарко 1018.6 1010.0
00 10.08 В 7-10
{13}
8000 м ясно +23.8 +8.7 38 +24 +24 комфорт 1019.5 1010.9
03 10.08 СВ 6 10 км ясно +21.9 +10.3 48 +24 +24 комфорт 1020.7 1012.0 +20.7
06 10.08 В 8-11
{12}
10 км ясно +25.7 +12.3 43 +27 +29 жарко 1021.2 1012.6
09 10.08 В 8-12
{13}
10 км ясно +29.9 +9.9 29 +30 +33 жарко 1020.1 1011.6
12 10.08 В 8-12
{16}
10 км ясно +31.4 +8.8 25 +31 +33 жарко 1018.9 1010.5
15 10.08 СВ 7
{12}
10 км ясно +30.2 +8.0 25 +29 +30 жарко 1018.6 1010.1 +31.6
18 10.08 В 8-10
{12}
10 км дым ясно +26.6 +6.6 28 +26 +26 жарко 1019.0 1010.4
21 10.08 В 5
{10}
8000 м ясно +22.1 +7.8 40 +23 +23 комфорт 1018.5 1009.8
00 11.08 В 5
{10}
8000 м ясно +20.6 +8.1 45 +22 +22 комфорт 1018.3 1009.6
03 11.08 СВ 5 10 км ясно +19.6 +8.4 48 +20 +21 по сезону 1018.5 1009.7 +18.7
06 11.08 В 6
{10}
10 км ясно +25.6 +10.2 38 +26 +30 жарко 1018.3 1009.7
09 11.08 В 9-13
{13}
10 км ясно +30.3 +6.4 22 +29 +30 жарко 1016.6 1008.2
12 11.08 В 8-11
{14}
10 км ясно +32.1 +4.9 18 +30 +32 жарко 1014.9 1006.5
15 11.08 В 6
{13}
10 км ясно +31.8 +4.7 18 +30 +30 жарко 1013.4 1005.0 +32.7
18 11.08 СВ 5
{13}
8000 м 1/0
[Ac trans]
+25.9 +6.3 29 +26 +26 жарко 1013.9 1005.4
21 11.08 СВ 5 8000 м 4/0
[Ac trans]
+24.2 +6.1 31 +24 +24 комфорт 1013.8 1005.2
00 12.08 В 5 8000 м 4/0
[Ac trans]
+22.1 +7.2 38 +23 +23 комфорт 1013.6 1005.0
03 12.08 В 4 10 км 3/0
[Ac trans]
+20.5 +10.8 54 +22 +23 комфорт 1014.3 1005.6 +19.8
06 12.08 В 6 10 км 3/0
[Ac trans]
+25.6 +12.5 44 +27 +30 жарко 1014.7 1006.2
09 12.08 В 8-12
{14}
10 км 4/0
[Ac trans Ci fib]
+30.0 +8.5 26 +29 +32 жарко 1013.9 1005.5
12 12.08 В 9-12
{14}
10 км ясно +32.6 +4.2 17 +30 +31 жарко 1011.9 1003.6
15 12.08 В 6
{14}
10 км ясно +31.5 +4.7 18 +29 +30 жарко 1011.1 1002.7 +32.9
18 12.08 СВ 5
{14}
8000 м ясно +25.6 +2.8 23 +24 +24 комфорт 1011.5 1003.0
21 12.08 В 7
{13}
8000 м 3/0
[Ci fib]
+25.5 +2.2 22 +24 +24 комфорт 1011.1 1002.6
00 13.08 В 5
{13}
8000 м ясно +22.1 +1.6 26 +22 +22 комфорт 1011.3 1002.7
03 13.08 В 5 10 км ясно +20.0 +3.7 34 +20 +21 по сезону 1011.1 1002.4 +18.8
06 13.08 В 6 10 км ясно +26.3 +10.4 37 +27 +30 жарко 1011.3 1002.8
09 13.08 В 11-14
{14}
10 км ясно +32.0 +6.4 20 +30 +30 жарко 1010.6 1002.3
12 13.08 В 8-12
{14}
10 км ясно +34.4 +6.4 18 +32 +34 жарко 1009.2 1000.9
15 13.08 В 5
{14}
10 км ясно +33.5 +5.6 18 +31 +32 жарко 1008.5 1000.2 +34.7
18 13.08 В 5
{14}
8000 м ясно +28.0 +6.6 26 +27 +27 жарко 1009.5 1001.1
21 13.08 СВ 3 8000 м ясно +23.5 +5.1 30 +23 +23 комфорт 1010.1 1001.5
00 14.08 В 6
{10}
8000 м ясно +23.2 +8.1 38 +24 +24 комфорт 1010.7 1002.1
03 14.08 В 5
{10}
10 км ясно +22.1 +10.0 46 +24 +24 комфорт 1011.1 1002.5 +21.2
06 14.08 В 6
{10}
10 км ясно +27.1 +10.5 35 +28 +31 жарко 1011.8 1003.3
09 14.08 В 8-11
{11}
10 км ясно +33.3 +6.8 19 +31 +34 жарко 1011.2 1002.9
12 14.08 В 8-12
{13}
10 км ясно +35.0 +7.4 18 +33 +35 жарко 1010.3 1002.0
15 14.08 В 8-11
{13}
10 км 3/0
[Ci fib]
+32.6 +10.0 25 +32 +32 жарко 1010.2 1001.9 +35.4
18 14.08 В 7-10
{13}
8000 м 5/0
[Ac trans Ci fib]
+28.0 +8.8 30 +28 +28 жарко 1012.3 1003.8
21 14.08 В 8-11
{14}
8000 м 5/0
[Ac trans Ci fib]
+25.9 +8.4 33 +26 +26 жарко 1013.1 1004.6
00 15.08 В 7
{14}
8000 м 4/0
[Ac trans Ci fib]
+23.2 +9.7 42 +25 +25 комфорт 1013.5 1004.9
03 15.08 В 6
{10}
10 км 5/0
[Ac trans Ci fib]
+22.8 +8.9 41 +24 +24 комфорт 1013.6 1005.0 +22.5
06 15.08 В 6
{10}
10 км 8/1 1500 м
[Cb calv Ac trans Ci fib]
+24.7 +11.0 42 +26 +28 жарко 1014.2 1005.6
09 15.08 В 8-11
{12}
10 км 6/0
[Ac trans Ci fib]
+30.9 +9.1 26 +30 +32 жарко 1014.3 1005.9
12 15.08 СВ 8-11
{12}
10 км 5/0
[Ac trans Ci fib]
+32.4 +7.8 22 +31 +33 жарко 1013.3 1004.9
15 15.08 В 7
{12}
10 км 8/0
[Ac trans Ci]
+30.8 +6.2 21 +29 +29 жарко 1013.8 1005.4 +32.9
18 15.08 В 7
{12}
8000 м 5/0
[Ac trans Ci fib]
+27.0 +5.5 25 +26 +26 жарко 1015.0 1006.5
21 15.08 СВ 5 8000 м дым 5/0
[Ac trans Ci fib]
+23.3 +5.5 32 +24 +24 комфорт 1015.2 1006.6
00 16.08 СВ 5 8000 м 5/0
[Ac trans Ci fib]
+22.4 +4.4 31 +23 +23 комфорт 1015.3 1006.6
03 16.08 В 3 10 км 8/0
[Ac trans Ci fib]
+19.0 +6.6 44 +20 +20 по сезону 1015.5 1006.7 +18.4
06 16.08 СВ 5 10 км 8/0
[Ac trans Ci]
+23.6 +8.8 39 +24 +27 комфорт 1015.8 1007.2
09 16.08 В 6
{10}
10 км 9/0
[Ac trans Ci]
+29.7 +9.2 28 +29 +33 жарко 1015.5 1007.1
12 16.08 В 7-10
{13}
10 км 9/3 1000 м
[Cu med, cong Ac trans Ci]
+32.5 +6.9 20 +31 +32 жарко 1014.7 1006.3
15 16.08 В 7-10
{12}
10 км 8/1 1500 м
[Cu hum Ac trans Ci]
+31.3 +6.9 22 +30 +30 жарко 1014.4 1006.0 +32.9

 

Местоположение метеостанции Ростов-на-Дону (Ростовская область, Россия): широта 47.27 долгота 39.82 высота над уровнем моря 75 м.

В архиве по умолчанию представлена погода в Ростове-на-Дону за последнюю неделю. Архивные данные за месяц целиком и за предыдущие месяцы, начиная с января 2011 года, Вы можете получить, выбрав интересующий диапазон дат из раскрывающегося списка и нажав кнопку "Ввод!".

Внимание! Время в таблицах - всемирное. Для получения местного времени необходимо прибавить поправку, которая в Ростове-на-Дону равна 3 ч.

Смотрите также архив погоды в соседних городах и на ближайших метеорологических станциях:

Погода в Шахтах (Ростовская область, Россия) (59 км)
Погода в Зерноград (Ростовская область, Россия) (60 км)
Погода в Таганроге (Ростовская область, Россия) (70 км)
Погода в Матвеевом Кургане (Ростовская область, Россия) (78 км)
Погода в Семикаракорске (Ростовская область, Россия) (81 км)
Погода в Маргаритово (Ростовская область, Россия) (81 км)
Погода в Кущевской (Краснодарский край, Россия) (84 км)
Погода в Константиновске (Ростовская область, Россия) (102 км)
Погода в Староминская (Краснодарский край, Россия) (102 км)
Погода в Каменск-Шахтинском (Ростовская область, Россия) (120 км)

Пояснения к столбцам:

Ветер - указаны скорость ветра в м/с - средняя за 10 мин, порывы в срок и между сроками (в фигурных скобках) и направление, откуда дует ветер: С - северный, СВ - северо-восточный, В - восточный, ЮВ - юго-восточный, Ю - южный, ЮЗ - юго-западный, З - западный, СЗ - северо-западный.
Видимость - горизонтальная дальность видимости в метрах или километрах. При видимости от 1 до 10 км при отсутствии осадков обычно наблюдается дымка, при ухудшении видимости до 1 км и менее - туман. В сухую погоду видимость может ухудшаться дымом, пылью или мглою.
Явления - указаны атмосферные явления, наблюдавшиеся в срок или в последний час перед сроком; фигурными скобками обозначены явления, наблюдавшиеся между сроками (за 1-3 часа до срока); квадратными скобками обозначены град или гололедные отложения с указанием их диаметра в мм.
Облачность - указаны через наклонную черту общая и нижняя облачность в баллах и высота нижней границы облаков в метрах; квадратными скобками обозначены формы облаков: Ci - перистые, Cs - перисто-слоистые, Cc - перисто-кучевые, Ac - высококучевые, As - высокослоистые, Sc - слоисто-кучевые, Ns - слоисто-дождевые, Cu - кучевые, Cb - кучево-дождевые. Подробнее классификацию облаков см. в Атласе облаков (PDF).
T - Температура воздуха - температура, измеренная на высоте 2 м над землей.
Td - Температура точки росы - температура, при понижении до которой содержащийся в воздухе водяной пар достигнет насыщения.
f - Относительная влажность воздуха - влажноcть воздуха, измеренная на высоте 2 м над землей.
Te - Эффективная температура - температура, которую ощущает одетый по сезону человек в тени. Характеристика душности погоды. При расчете учитывается влияние влажности воздуха и скорости ветра на теплоощущения человека.
Tes - Эффективная температура на солнце - температура, которую ощущает человек, с поправкой на солнечный нагрев. Характеристика знойности погоды. Зависит от высоты солнца над горизонтом, облачности и скорости ветра. Ночью, в пасмурную погоду, а также при ветре 12 м/с и более поправка равна нулю.
P - Атмосферное давление - приведенное к уровню моря атмосферное давление.
Po - Атмосферное давление - измеренное на уровне метеостанции атмосферное давление.
Tmin - Минимальная температура - минимум температуры воздуха на высоте 2 м над землей.
Tmax - Максимальная температура - максимум температуры воздуха на высоте 2 м над землей.
R - Количество осадков - Количество выпавших осадков за период времени, мм. При наведении курсора мыши на число - период времени, за который выпало указанное количество осадков.
R24 - Количество осадков - Количество выпавших осадков за 24 часа, мм.
S - Снежный покров - Высота снежного покрова, см. При наведении курсора мыши на число - состояние снежного покрова и степень покрытия местности в баллах.